Lafayette, IN

11:13 PM EDT on September 19, 2017 (GMT -0400)
Purdue Univ

Weather History for KLAF - November, 2011

Change the Weather History Date:

Monday, November 21, 2011

  Actual Average Record
Temperature  
Mean Temperature 46 °F 40 °F  
Max Temperature 51 °F 48 °F 66 °F (2010)
Min Temperature 41 °F 32 °F 8 °F (2014)
Degree Days  
Heating Degree Days 19 25  
Month to date heating degree days 318 423  
Since 1 July heating degree days 732 857  
Cooling Degree Days 0 0  
Month to date cooling degree days 0 0  
Year to date cooling degree days 1246 982  
Moisture  
Dew Point 39 °F    
Average Humidity 83    
Maximum Humidity 89    
Minimum Humidity 76    
Precipitation  
Precipitation 0.01 in 0.10 in 2.42 in (2007)
Month to date precipitation 1.92 2.05  
Year to date precipitation 37.58 33.15  
Sea Level Pressure  
Sea Level Pressure 30.22 in    
Wind  
Wind Speed 11 mph (ENE)    
Max Wind Speed 17 mph    
Max Gust Speed 21 mph    
Visibility 9 miles    
Events      
T = Trace of Precipitation, MM = Missing Value Source: NWS Daily Summary

Daily Weather History Graph

Daily Weather History Graph

Search for Another Location

Airport or City:

Trip Planner

Search our weather history database for the weather conditions in past years. The results will help you decide how hot, cold, wet, or windy it might be!

Date:

Astronomy

Nov. 21, 2011 Rise Set
Actual Time 7:40 AM EST 5:26 PM EST
Civil Twilight 7:10 AM EST 5:55 PM EST
Nautical Twilight 6:37 AM EST 6:29 PM EST
Astronomical Twilight 6:05 AM EST 7:01 PM EST
Moon 3:17 AM EST (11/21) 2:49 PM EST (11/21)
Length of Visible Light 10h 45m
Length of Day
9h 45m
Waning Crescent, 18% of the Moon is Illuminated
Nov 21
Waning Crescent
Nov 25
New
Dec 2
First Quarter
Dec 10
Full
Dec 17
Last Quarter

Hourly Weather History & Observations

Time (EST) Temp. Windchill Dew Point Humidity Pressure Visibility Wind Dir Wind Speed Gust Speed Precip Events Conditions
12:54 AM 42.1 °F 37.1 °F 37.0 °F 82% 30.25 in 10.0 mi NE 8.1 mph - 0.01 in   Overcast
1:54 AM 41.0 °F 35.8 °F 37.0 °F 86% 30.25 in 10.0 mi East 8.1 mph - 0.00 in   Overcast
2:54 AM 41.0 °F 35.8 °F 37.0 °F 86% 30.24 in 10.0 mi ENE 8.1 mph - 0.00 in   Overcast
3:54 AM 42.1 °F 35.7 °F 37.9 °F 85% 30.23 in 10.0 mi East 11.5 mph - N/A   Overcast
4:54 AM 42.1 °F 37.1 °F 37.9 °F 85% 30.24 in 10.0 mi ENE 8.1 mph - N/A   Overcast
5:54 AM 43.0 °F 36.8 °F 37.9 °F 82% 30.24 in 10.0 mi East 11.5 mph - N/A   Overcast
6:54 AM 43.0 °F 37.7 °F 39.0 °F 86% 30.25 in 10.0 mi East 9.2 mph - N/A   Overcast
7:54 AM 44.1 °F 39.0 °F 39.0 °F 82% 30.24 in 10.0 mi East 9.2 mph - N/A   Overcast
9:41 AM 44.6 °F 39.7 °F 39.2 °F 81% 30.26 in 6.0 mi ENE 9.2 mph - N/A   Haze
9:49 AM 44.6 °F 38.8 °F 39.2 °F 81% 30.26 in 6.0 mi ENE 11.5 mph - N/A   Haze
9:54 AM 45.0 °F 39.7 °F 39.9 °F 82% 30.26 in 6.0 mi East 10.4 mph - N/A   Haze
10:54 AM 46.9 °F - 41.0 °F 80% 30.26 in 6.0 mi East 11.5 mph - N/A   Haze
11:39 AM 48.2 °F - 41.0 °F 76% 30.23 in 10.0 mi East 15.0 mph - N/A   Partly Cloudy
11:54 AM 48.9 °F - 41.0 °F 74% 30.24 in 10.0 mi East 13.8 mph - N/A   Scattered Clouds
12:54 PM 48.9 °F - 41.0 °F 74% 30.22 in 10.0 mi East 11.5 mph - N/A   Scattered Clouds
1:54 PM 48.9 °F - 42.1 °F 77% 30.20 in 10.0 mi ENE 13.8 mph - N/A   Overcast
2:54 PM 48.0 °F - 41.0 °F 77% 30.19 in 10.0 mi ENE 12.7 mph - N/A   Overcast
3:54 PM 46.9 °F - 39.9 °F 77% 30.18 in 10.0 mi ENE 13.8 mph - N/A   Overcast
4:54 PM 46.9 °F - 39.9 °F 77% 30.19 in 10.0 mi East 13.8 mph - N/A   Overcast
5:54 PM 46.9 °F - 39.9 °F 77% 30.19 in 10.0 mi East 13.8 mph - N/A   Overcast
6:54 PM 46.0 °F 40.6 °F 39.0 °F 76% 30.19 in 10.0 mi East 11.5 mph - N/A   Overcast
7:54 PM 45.0 °F 39.7 °F 39.0 °F 80% 30.18 in 10.0 mi East 10.4 mph - N/A   Overcast
8:05 PM 44.6 °F 38.8 °F 39.2 °F 81% 30.17 in 10.0 mi East 11.5 mph - N/A   Overcast
8:54 PM 45.0 °F 38.5 °F 39.0 °F 80% 30.18 in 9.0 mi ENE 13.8 mph - N/A   Overcast
9:54 PM 45.0 °F 39.7 °F 39.9 °F 82% 30.18 in 8.0 mi East 10.4 mph - N/A   Overcast
10:54 PM 44.1 °F 38.6 °F 39.9 °F 85% 30.16 in 6.0 mi East 10.4 mph - N/A   Overcast
11:54 PM 45.0 °F 38.9 °F 39.9 °F 82% 30.16 in 6.0 mi East 12.7 mph - N/A   Haze